Bangor, ME

4:22 AM EST on February 07, 2016 (GMT -0500)
Bangor International

Weather History for KBGR - August, 2014

Change the Weather History Date:

Wednesday, August 20, 2014

  Actual Average Record
Temperature  
Mean Temperature 68 °F 67 °F  
Max Temperature 83 °F 78 °F 94 °F (1938)
Min Temperature 52 °F 55 °F 42 °F (1944)
Degree Days  
Heating Degree Days 0 1  
Month to date heating degree days 8 20  
Since 1 June heating degree days 84 150  
Since 1 July heating degree days 13 43  
Cooling Degree Days 3 3  
Month to date cooling degree days 51 74  
Year to date cooling degree days 270 264  
Since 1 June cooling degree days 270 258  
Growing Degree Days 18 (Base 50)    
Moisture  
Dew Point 56 °F    
Average Humidity 70    
Maximum Humidity 97    
Minimum Humidity 42    
Precipitation  
Precipitation 0.00 in 0.09 in 1.19 in (1984)
Month to date precipitation 2.81 1.99  
Year to date precipitation 27.59 25.26  
Snow  
Snow 0.00 in 0.00 in 0.00 in (2002)
Month to date snowfall 0.0 0.0  
Since 1 June snowfall 0.0 0.0  
Since 1 July snowfall 0.0 0.0  
Snow Depth 0.00 in    
Sea Level Pressure  
Sea Level Pressure 30.01 in    
Wind  
Wind Speed 2 mph (SW)    
Max Wind Speed 8 mph    
Max Gust Speed 11 mph    
Visibility 10 miles    
Events Fog    
T = Trace of Precipitation, MM = Missing Value Source: NWS Daily Summary

Daily Weather History Graph

Daily Weather History Graph

Search for Another Location

Airport or City:

Trip Planner

Search our weather history database for the weather conditions in past years. The results will help you decide how hot, cold, wet, or windy it might be!

Date:

Astronomy

Aug. 20, 2014 Rise Set
Actual Time 5:43 AM EDT 7:33 PM EDT
Civil Twilight 5:12 AM EDT 8:04 PM EDT
Nautical Twilight 4:33 AM EDT 8:42 PM EDT
Astronomical Twilight 3:52 AM EDT 9:23 PM EDT
Moon 1:15 AM EDT (8/20) 4:19 PM EDT (8/20)
Length of Visible Light 14h 52m
Length of Day
13h 49m
Waning Crescent, 21% of the Moon is Illuminated
Aug 20
Waning Crescent
Aug 25
New
Sep 2
First Quarter
Sep 8
Full
Sep 15
Last Quarter

Hourly Weather History & Observations

Time (EDT) Temp. Heat Index Dew Point Humidity Pressure Visibility Wind Dir Wind Speed Gust Speed Precip Events Conditions
12:53 AM 57.9 °F - 55.0 °F 90% 29.94 in 10.0 mi SW 3.5 mph - N/A   Clear
1:53 AM 57.0 °F - 54.0 °F 89% 29.95 in 10.0 mi Calm Calm - N/A   Clear
2:53 AM 55.9 °F - 54.0 °F 93% 29.96 in 10.0 mi Calm Calm - N/A   Clear
3:53 AM 55.9 °F - 53.1 °F 90% 29.96 in 10.0 mi Calm Calm - N/A   Clear
4:53 AM 54.0 °F - 52.0 °F 93% 29.96 in 10.0 mi Calm Calm - N/A   Partly Cloudy
5:53 AM 54.0 °F - 51.1 °F 90% 29.99 in 10.0 mi Calm Calm - N/A Fog Patches of Fog
6:53 AM 57.9 °F - 55.0 °F 90% 30.01 in 10.0 mi Calm Calm - N/A Fog Patches of Fog
7:53 AM 63.0 °F - 57.0 °F 81% 30.02 in 10.0 mi Calm Calm - N/A   Partly Cloudy
8:53 AM 68.0 °F - 57.0 °F 68% 30.02 in 10.0 mi Calm Calm - N/A   Partly Cloudy
9:53 AM 73.0 °F - 57.0 °F 57% 30.02 in 10.0 mi Calm Calm - N/A   Partly Cloudy
10:53 AM 75.9 °F - 57.0 °F 52% 30.02 in 10.0 mi Calm Calm - N/A   Partly Cloudy
11:53 AM 79.0 °F - 57.0 °F 47% 30.02 in 10.0 mi East 4.6 mph - N/A   Partly Cloudy
12:53 PM 77.0 °F - 55.0 °F 47% 30.01 in 10.0 mi Calm Calm - N/A   Partly Cloudy
1:53 PM 80.1 °F 80.2 °F 55.9 °F 43% 30.01 in 10.0 mi WSW 5.8 mph - N/A   Scattered Clouds
2:53 PM 81.0 °F 80.7 °F 55.0 °F 41% 30.00 in 10.0 mi NW 4.6 mph - N/A   Scattered Clouds
3:53 PM 80.1 °F 80.1 °F 55.0 °F 42% 30.00 in 10.0 mi West 5.8 mph - N/A   Mostly Cloudy
4:53 PM 80.1 °F 80.1 °F 55.0 °F 42% 30.00 in 10.0 mi WNW 3.5 mph - N/A   Mostly Cloudy
5:53 PM 78.1 °F - 55.9 °F 46% 30.01 in 10.0 mi WSW 4.6 mph - N/A   Mostly Cloudy
6:53 PM 75.0 °F - 60.1 °F 60% 30.01 in 10.0 mi SSW 6.9 mph - N/A   Mostly Cloudy
7:53 PM 72.0 °F - 61.0 °F 68% 30.02 in 10.0 mi SSW 5.8 mph - N/A   Mostly Cloudy
8:53 PM 69.1 °F - 61.0 °F 75% 30.04 in 10.0 mi SSW 5.8 mph - N/A   Scattered Clouds
9:53 PM 66.0 °F - 60.1 °F 81% 30.04 in 10.0 mi South 3.5 mph - N/A   Scattered Clouds
10:53 PM 62.1 °F - 59.0 °F 90% 30.05 in 10.0 mi Calm Calm - N/A   Partly Cloudy
11:53 PM 61.0 °F - 59.0 °F 93% 30.06 in 10.0 mi Calm Calm - N/A   Partly Cloudy